Mason City, IA

3:39 AM CDT on April 27, 2018 (GMT -0500)
Mason City Municipal

Weather History for KMCW - November, 2012

Change the Weather History Date:

Sunday, November 4, 2012

  Actual Average Record
Temperature  
Mean Temperature 43 °F 40 °F  
Max Temperature 48 °F 50 °F 72 °F (1975)
Min Temperature 37 °F 30 °F 0 °F (1991)
Degree Days  
Heating Degree Days 22 25  
Month to date heating degree days 104 96  
Since 1 July heating degree days 870 834  
Cooling Degree Days 0 0  
Month to date cooling degree days 0 0  
Year to date cooling degree days 899 616  
Moisture  
Dew Point 35 °F    
Average Humidity 76    
Maximum Humidity 92    
Minimum Humidity 60    
Precipitation  
Precipitation 0.06 in 0.07 in 0.79 in (1938)
Month to date precipitation 0.06 0.28  
Year to date precipitation 18.54 32.36  
Snow  
Snow 0.00 in 0.00 in 0.40 in (1959)
Month to date snowfall 0.0 0.2  
Since 1 July snowfall 0.0 0.6  
Since 1 September snowfall 0.0 0.6  
Snow Depth 0.00 in    
Sea Level Pressure  
Sea Level Pressure 30.19 in    
Wind  
Wind Speed 6 mph (SSE)    
Max Wind Speed 12 mph    
Max Gust Speed 16 mph    
Visibility 8 miles    
Events Rain    
T = Trace of Precipitation, MM = Missing Value Source: NWS Daily Summary

Daily Weather History Graph

Daily Weather History Graph

Search for Another Location

Airport or City:

Astronomy

Nov. 04, 2012 Rise Set
Actual Time 6:52 AM CST 5:00 PM CST
Civil Twilight 6:22 AM CST 5:30 PM CST
Nautical Twilight 5:48 AM CST 6:04 PM CST
Astronomical Twilight 5:15 AM CST 6:37 PM CST
Moon 9:37 PM CST (11/4) 11:38 AM CST (11/4)
Length of Visible Light 11h 07m
Length of Day
10h 07m
Waning Gibbous, 72% of the Moon is Illuminated
Nov 4
Waning Gibbous
Nov 6
Last Quarter
Nov 13
New
Nov 20
First Quarter
Nov 28
Full

Hourly Weather History & Observations

Time (CST) Temp. Windchill Dew Point Humidity Pressure Visibility Wind Dir Wind Speed Gust Speed Precip Events Conditions
12:53 AM 39.0 °F 34.8 °F 32.0 °F 76% 30.24 in 10.0 mi NW 5.8 mph - 0.00 in Rain Light Rain
1:17 AM 39.2 °F 35.9 °F 33.8 °F 81% 30.23 in 8.0 mi NNW 4.6 mph - 0.01 in Rain Light Rain
1:30 AM 39.2 °F 37.0 °F 33.8 °F 81% 30.23 in 9.0 mi NW 3.5 mph - 0.01 in Rain Light Rain
1:53 AM 39.0 °F - 34.0 °F 82% 30.23 in 10.0 mi Calm Calm - 0.01 in Rain Light Rain
1:53 AM 37.9 °F - 34.0 °F 86% 30.23 in 9.0 mi Calm Calm - 0.00 in Rain Light Rain
2:53 AM 37.9 °F - 35.1 °F 89% 30.23 in 9.0 mi Calm Calm - 0.00 in   Overcast
3:53 AM 37.9 °F - 35.1 °F 89% 30.22 in 8.0 mi Calm Calm - N/A   Overcast
4:53 AM 37.9 °F 35.5 °F 34.0 °F 86% 30.23 in 9.0 mi SE 3.5 mph - N/A   Overcast
5:53 AM 37.9 °F 34.4 °F 34.0 °F 86% 30.23 in 9.0 mi SSE 4.6 mph - N/A   Overcast
6:53 AM 37.9 °F 33.5 °F 34.0 °F 86% 30.22 in 8.0 mi SE 5.8 mph - N/A   Overcast
7:53 AM 39.0 °F 34.0 °F 35.1 °F 86% 30.22 in 5.0 mi SE 6.9 mph - N/A   Overcast
8:53 AM 39.9 °F 33.9 °F 35.1 °F 83% 30.22 in 5.0 mi SSE 9.2 mph - N/A   Haze
9:53 AM 42.1 °F 36.1 °F 37.0 °F 82% 30.21 in 5.0 mi SSE 10.4 mph - N/A   Haze
10:53 AM 43.0 °F 38.8 °F 36.0 °F 76% 30.20 in 5.0 mi SSE 6.9 mph - N/A   Haze
11:53 AM 45.0 °F 40.1 °F 36.0 °F 71% 30.18 in 6.0 mi SE 9.2 mph - N/A   Haze
12:53 PM 46.9 °F - 35.1 °F 63% 30.16 in 7.0 mi South 8.1 mph - N/A   Overcast
1:53 PM 46.9 °F - 35.1 °F 63% 30.14 in 8.0 mi South 10.4 mph - N/A   Overcast
2:53 PM 46.0 °F 41.4 °F 33.1 °F 61% 30.13 in 8.0 mi South 9.2 mph - N/A   Overcast
3:53 PM 46.0 °F 41.9 °F 34.0 °F 63% 30.13 in 8.0 mi SSE 8.1 mph - N/A   Overcast
4:53 PM 44.1 °F 40.1 °F 35.1 °F 71% 30.13 in 7.0 mi SSE 6.9 mph - 0.00 in   Overcast
5:53 PM 43.0 °F 39.5 °F 36.0 °F 76% 30.14 in 6.0 mi SE 5.8 mph - 0.01 in Rain Light Rain
6:53 PM 43.0 °F 39.5 °F 36.0 °F 76% 30.15 in 7.0 mi SE 5.8 mph - 0.01 in Rain Light Rain
7:53 PM 42.1 °F 37.1 °F 36.0 °F 79% 30.14 in 9.0 mi ESE 8.1 mph - 0.01 in   Overcast
8:53 PM 42.1 °F 36.1 °F 37.0 °F 82% 30.14 in 8.0 mi ESE 10.4 mph - 0.01 in   Overcast
9:53 PM 41.0 °F 36.4 °F 37.0 °F 86% 30.14 in 7.0 mi SE 6.9 mph - N/A   Overcast
10:53 PM 41.0 °F 36.4 °F 37.9 °F 89% 30.13 in 5.0 mi SE 6.9 mph - 0.01 in   Overcast